Terminal Aerodrome Forecast
Issued by NWS Dallas/Fort Worth, TX

Home | Current Version | Previous Version | Text Only | Print | Product List | Glossary On
Versions: 1 2 3 4 5 6 7 8 9 10 11 12 13 14 15 16 17 18 19 20 21 22 23 24 25
000
FTUS44 KFWD 311100
TAFACT
TAF
KACT 311140Z 3112/0112 22009KT P6SM BKN025
     FM311600 34010KT P6SM VCTS BKN035CB OVC120
     FM311900 36010KT P6SM SCT035=

USA.gov is the U.S. government's official web portal to all federal, state and local government web resources and services.